User: anonymous   Login
Location: Unspecified
(0.0000°N, 0.0000°E)
Time: 19:28:18
(UTC+00:00)
Language:

STARLINK-1434 - Orbit

View from above orbital plane
View from above orbital plane
View from above satellite
View from above satellite

Ground track
Ground track

The orbit is defined by the following mean orbital elements,

1 45712U          26145.37961881 +.00000000 +00000-0 +89839-3 0 00003
2 45712  53.0527  22.9395 0003398  67.8992 292.2369 15.33063018    00
Epoch (UTC): 25 May 2026 09:06:39
Eccentricity: 0.0003398
inclination: 53.0527°
perigee height: 464 km
apogee height: 469 km
right ascension of ascending node: 22.9395°
argument of perigee: 67.8992°
revolutions per day: 15.33063018
mean anomaly at epoch: 292.2369°

The dashed part of the orbit path shows where the satellite is in the earth's shadow,  

DLR